Time,TemperatureF,DewpointF,PressureIn,WindDirection,WindDirectionDegrees,WindSpeedMPH,WindSpeedGustMPH,Humidity,HourlyPrecipIn,Conditions,Clouds,dailyrainin,SoftwareType,DateUTC
2013-02-01 00:11:00,23.7,15.0,29.60,West,270,10.9,-999.0,69,-99.99,,,0.00,Acu-Link.com,2013-02-01 05:11:00,
2013-02-01 00:27:00,23.9,13.5,29.59,WSW,247,4.7,-999.0,64,-99.99,,,0.00,Acu-Link.com,2013-02-01 05:27:00,
2013-02-01 00:42:00,23.7,13.3,29.60,WSW,247,4.2,-999.0,64,-99.99,,,0.00,Acu-Link.com,2013-02-01 05:42:00,
2013-02-01 00:57:00,23.5,13.5,29.61,WSW,247,3.7,-999.0,65,-99.99,,,0.00,Acu-Link.com,2013-02-01 05:57:00,
2013-02-01 01:12:00,23.4,13.0,29.60,West,270,7.8,-999.0,64,-99.99,,,0.00,Acu-Link.com,2013-02-01 06:12:00,
2013-02-01 01:27:00,23.5,12.1,29.60,West,270,3.7,-999.0,61,-99.99,,,0.00,Acu-Link.com,2013-02-01 06:27:00,
2013-02-01 01:42:00,23.2,11.4,29.59,SSW,202,3.2,-999.0,60,-99.99,,,0.00,Acu-Link.com,2013-02-01 06:42:00,
2013-02-01 01:57:00,23.2,11.0,29.59,SSW,202,4.7,-999.0,59,-99.99,,,0.00,Acu-Link.com,2013-02-01 06:57:00,
2013-02-01 02:12:00,22.6,10.8,29.60,SW,225,2.2,-999.0,60,-99.99,,,0.00,Acu-Link.com,2013-02-01 07:12:00,
2013-02-01 02:27:00,22.6,10.8,29.60,WSW,247,4.2,-999.0,60,-99.99,,,0.00,Acu-Link.com,2013-02-01 07:27:00,
2013-02-01 02:43:00,22.5,11.1,29.61,West,270,4.2,-999.0,61,-99.99,,,0.00,Acu-Link.com,2013-02-01 07:43:00,
2013-02-01 02:58:00,22.5,11.1,29.61,South,180,4.2,-999.0,61,-99.99,,,0.00,Acu-Link.com,2013-02-01 07:58:00,
2013-02-01 03:13:00,22.3,10.9,29.62,West,270,3.7,-999.0,61,-99.99,,,0.00,Acu-Link.com,2013-02-01 08:13:00,
2013-02-01 03:28:00,21.9,10.9,29.61,SW,225,2.7,-999.0,62,-99.99,,,0.00,Acu-Link.com,2013-02-01 08:28:00,
2013-02-01 03:43:00,21.9,11.3,29.62,WSW,247,3.2,-999.0,63,-99.99,,,0.00,Acu-Link.com,2013-02-01 08:43:00,
2013-02-01 03:58:00,21.6,11.3,29.62,WSW,247,3.2,-999.0,64,-99.99,,,0.00,Acu-Link.com,2013-02-01 08:58:00,
2013-02-01 04:17:00,21.6,11.3,29.63,WNW,292,6.3,-999.0,64,-99.99,,,0.00,Acu-Link.com,2013-02-01 09:17:00,
2013-02-01 04:32:00,21.4,11.8,29.64,WSW,247,2.7,-999.0,66,-99.99,,,0.00,Acu-Link.com,2013-02-01 09:32:00,
2013-02-01 04:47:00,21.4,11.5,29.66,West,270,4.7,-999.0,65,-99.99,,,0.00,Acu-Link.com,2013-02-01 09:47:00,
2013-02-01 05:02:00,21.4,10.8,29.67,WSW,247,11.4,-999.0,63,-99.99,,,0.00,Acu-Link.com,2013-02-01 10:02:00,
2013-02-01 05:17:00,21.6,10.6,29.69,West,270,5.8,-999.0,62,-99.99,,,0.00,Acu-Link.com,2013-02-01 10:17:00,
2013-02-01 05:32:00,21.4,10.1,29.71,WNW,292,3.2,-999.0,61,-99.99,,,0.00,Acu-Link.com,2013-02-01 10:32:00,
2013-02-01 05:47:00,21.4,9.3,29.72,WSW,247,6.8,-999.0,59,-99.99,,,0.00,Acu-Link.com,2013-02-01 10:47:00,
2013-02-01 06:02:00,21.6,9.5,29.73,WSW,247,5.3,-999.0,59,-99.99,,,0.00,Acu-Link.com,2013-02-01 11:02:00,
2013-02-01 06:17:00,21.6,10.6,29.74,West,270,8.3,-999.0,62,-99.99,,,0.00,Acu-Link.com,2013-02-01 11:17:00,
2013-02-01 06:33:00,21.4,11.5,29.76,West,270,9.4,-999.0,65,-99.99,,,0.00,Acu-Link.com,2013-02-01 11:33:00,
2013-02-01 06:48:00,21.0,12.1,29.78,West,270,13.0,-999.0,68,-99.99,,,0.00,Acu-Link.com,2013-02-01 11:48:00,
2013-02-01 07:03:00,20.5,11.3,29.80,SW,225,6.3,-999.0,67,-99.99,,,0.00,Acu-Link.com,2013-02-01 12:03:00,
2013-02-01 07:18:00,20.3,11.1,29.81,WNW,292,7.3,-999.0,67,-99.99,,,0.00,Acu-Link.com,2013-02-01 12:18:00,
2013-02-01 07:33:00,19.9,11.4,29.82,SSW,202,3.2,-999.0,69,-99.99,,,0.00,Acu-Link.com,2013-02-01 12:33:00,
2013-02-01 07:48:00,19.9,11.4,29.83,WSW,247,5.3,-999.0,69,-99.99,,,0.00,Acu-Link.com,2013-02-01 12:48:00,
2013-02-01 08:03:00,20.1,10.9,29.84,West,270,4.2,-999.0,67,-99.99,,,0.00,Acu-Link.com,2013-02-01 13:03:00,
2013-02-01 08:18:00,20.1,10.6,29.85,East,90,5.8,-999.0,66,-99.99,,,0.00,Acu-Link.com,2013-02-01 13:18:00,
2013-02-01 08:33:00,20.8,10.6,29.86,West,270,2.7,-999.0,64,-99.99,,,0.00,Acu-Link.com,2013-02-01 13:33:00,
2013-02-01 08:49:00,20.8,9.9,29.87,West,270,4.2,-999.0,62,-99.99,,,0.00,Acu-Link.com,2013-02-01 13:49:00,
2013-02-01 09:04:00,21.0,9.7,29.87,WSW,247,7.3,-999.0,61,-99.99,,,0.00,Acu-Link.com,2013-02-01 14:04:00,
2013-02-01 09:19:00,21.4,9.7,29.88,WNW,292,13.0,-999.0,60,-99.99,,,0.00,Acu-Link.com,2013-02-01 14:19:00,
2013-02-01 09:34:00,21.6,9.5,29.89,NW,315,4.7,-999.0,59,-99.99,,,0.00,Acu-Link.com,2013-02-01 14:34:00,
2013-02-01 09:49:00,21.9,9.4,29.90,West,270,11.4,-999.0,58,-99.99,,,0.00,Acu-Link.com,2013-02-01 14:49:00,
2013-02-01 10:04:00,22.1,9.2,29.91,West,270,7.8,-999.0,57,-99.99,,,0.00,Acu-Link.com,2013-02-01 15:04:00,
2013-02-01 10:19:00,21.7,9.2,29.91,West,270,5.3,-999.0,58,-99.99,,,0.00,Acu-Link.com,2013-02-01 15:19:00,
2013-02-01 10:34:00,22.3,10.2,29.92,West,270,2.7,-999.0,59,-99.99,,,0.00,Acu-Link.com,2013-02-01 15:34:00,
2013-02-01 10:50:00,22.3,9.0,29.93,West,270,8.9,-999.0,56,-99.99,,,0.00,Acu-Link.com,2013-02-01 15:50:00,
2013-02-01 11:05:00,22.6,8.9,29.93,West,270,16.6,-999.0,55,-99.99,,,0.00,Acu-Link.com,2013-02-01 16:05:00,
2013-02-01 11:20:00,23.2,8.6,29.93,West,270,5.3,-999.0,53,-99.99,,,0.00,Acu-Link.com,2013-02-01 16:20:00,
2013-02-01 11:35:00,23.5,8.9,29.93,West,270,4.7,-999.0,53,-99.99,,,0.00,Acu-Link.com,2013-02-01 16:35:00,
2013-02-01 11:50:00,24.3,7.5,29.93,SSE,157,4.7,-999.0,48,-99.99,,,0.00,Acu-Link.com,2013-02-01 16:50:00,
2013-02-01 12:05:00,24.8,6.5,29.93,SSW,202,5.3,-999.0,45,-99.99,,,0.00,Acu-Link.com,2013-02-01 17:05:00,
2013-02-01 12:20:00,23.9,6.2,29.93,WNW,292,15.5,-999.0,46,-99.99,,,0.00,Acu-Link.com,2013-02-01 17:20:00,
2013-02-01 12:35:00,24.8,7.0,29.93,West,270,11.9,-999.0,46,-99.99,,,0.00,Acu-Link.com,2013-02-01 17:35:00,
2013-02-01 12:50:00,24.4,6.1,29.94,West,270,15.5,-999.0,45,-99.99,,,0.00,Acu-Link.com,2013-02-01 17:50:00,
2013-02-01 13:06:00,25.3,7.0,29.93,West,270,5.8,-999.0,45,-99.99,,,0.00,Acu-Link.com,2013-02-01 18:06:00,
2013-02-01 13:21:00,23.9,8.4,29.94,West,270,9.9,-999.0,51,-99.99,,,0.00,Acu-Link.com,2013-02-01 18:21:00,
2013-02-01 13:36:00,25.7,8.8,29.95,West,270,6.3,-999.0,48,-99.99,,,0.00,Acu-Link.com,2013-02-01 18:36:00,
2013-02-01 13:51:00,24.3,7.5,29.96,NW,315,9.4,-999.0,48,-99.99,,,0.00,Acu-Link.com,2013-02-01 18:51:00,
2013-02-01 14:06:00,24.8,7.0,29.95,West,270,5.8,-999.0,46,-99.99,,,0.00,Acu-Link.com,2013-02-01 19:06:00,
2013-02-01 14:21:00,24.8,7.0,29.92,NW,315,4.7,-999.0,46,-99.99,,,0.00,Acu-Link.com,2013-02-01 19:21:00,
2013-02-01 14:36:00,24.6,8.6,29.90,West,270,10.4,-999.0,50,-99.99,,,0.00,Acu-Link.com,2013-02-01 19:36:00,
2013-02-01 14:51:00,25.0,7.2,29.89,West,270,6.3,-999.0,46,-99.99,,,0.00,Acu-Link.com,2013-02-01 19:51:00,
2013-02-01 15:06:00,25.0,7.6,29.89,SW,225,7.8,-999.0,47,-99.99,,,0.00,Acu-Link.com,2013-02-01 20:06:00,
2013-02-01 15:22:00,24.3,9.7,29.89,West,270,7.3,-999.0,53,-99.99,,,0.00,Acu-Link.com,2013-02-01 20:22:00,
2013-02-01 15:37:00,23.5,9.7,29.90,SSW,202,3.7,-999.0,55,-99.99,,,0.00,Acu-Link.com,2013-02-01 20:37:00,
2013-02-01 15:52:00,23.2,10.6,29.90,SSW,202,4.2,-999.0,58,-99.99,,,0.00,Acu-Link.com,2013-02-01 20:52:00,
2013-02-01 16:07:00,23.2,9.9,29.90,SW,225,11.9,-999.0,56,-99.99,,,0.00,Acu-Link.com,2013-02-01 21:07:00,
2013-02-01 16:23:00,23.0,11.2,29.92,West,270,5.3,-999.0,60,-99.99,,,0.00,Acu-Link.com,2013-02-01 21:23:00,
2013-02-01 16:38:00,23.5,10.9,29.93,West,270,8.9,-999.0,58,-99.99,,,0.00,Acu-Link.com,2013-02-01 21:38:00,
2013-02-01 16:54:00,22.8,9.9,29.96,WNW,292,8.3,-999.0,57,-99.99,,,0.00,Acu-Link.com,2013-02-01 21:54:00,
2013-02-01 17:09:00,22.1,8.0,29.97,SW,225,5.8,-999.0,54,-99.99,,,0.00,Acu-Link.com,2013-02-01 22:09:00,
2013-02-01 17:24:00,21.6,10.6,29.99,West,270,5.3,-999.0,62,-99.99,,,0.00,Acu-Link.com,2013-02-01 22:24:00,
2013-02-01 17:39:00,20.7,12.2,30.01,WSW,247,3.2,-999.0,69,-99.99,,,0.00,Acu-Link.com,2013-02-01 22:39:00,
2013-02-01 17:54:00,20.7,8.3,30.02,West,270,9.9,-999.0,58,-99.99,,,0.00,Acu-Link.com,2013-02-01 22:54:00,
2013-02-01 18:09:00,20.7,5.9,30.04,West,270,8.9,-999.0,52,-99.99,,,0.00,Acu-Link.com,2013-02-01 23:09:00,
2013-02-01 18:24:00,20.5,5.3,30.05,SW,225,9.9,-999.0,51,-99.99,,,0.00,Acu-Link.com,2013-02-01 23:24:00,
2013-02-01 18:40:00,20.1,5.7,30.07,West,270,4.2,-999.0,53,-99.99,,,0.00,Acu-Link.com,2013-02-01 23:40:00,
2013-02-01 18:55:00,19.9,5.6,30.08,SW,225,2.7,-999.0,53,-99.99,,,0.00,Acu-Link.com,2013-02-01 23:55:00,
2013-02-01 19:10:00,19.6,6.5,30.09,SW,225,7.8,-999.0,56,-99.99,,,0.00,Acu-Link.com,2013-02-02 00:10:00,
2013-02-01 19:25:00,19.4,7.1,30.10,WSW,247,10.9,-999.0,58,-99.99,,,0.00,Acu-Link.com,2013-02-02 00:25:00,
2013-02-01 19:40:00,19.4,8.2,30.10,WSW,247,6.3,-999.0,61,-99.99,,,0.00,Acu-Link.com,2013-02-02 00:40:00,
2013-02-01 19:56:00,19.2,7.3,30.11,WNW,292,5.8,-999.0,59,-99.99,,,0.00,Acu-Link.com,2013-02-02 00:56:00,
2013-02-01 20:11:00,18.9,7.0,30.12,WSW,247,7.3,-999.0,59,-99.99,,,0.00,Acu-Link.com,2013-02-02 01:11:00,
2013-02-01 20:26:00,18.3,6.4,30.13,West,270,5.8,-999.0,59,-99.99,,,0.00,Acu-Link.com,2013-02-02 01:26:00,
2013-02-01 20:41:00,18.1,6.2,30.14,West,270,7.8,-999.0,59,-99.99,,,0.00,Acu-Link.com,2013-02-02 01:41:00,
2013-02-01 20:56:00,18.1,5.8,30.15,SW,225,4.2,-999.0,58,-99.99,,,0.00,Acu-Link.com,2013-02-02 01:56:00,
2013-02-01 21:12:00,18.1,5.5,30.16,SW,225,4.7,-999.0,57,-99.99,,,0.00,Acu-Link.com,2013-02-02 02:12:00,
2013-02-01 21:27:00,18.1,5.1,30.16,SW,225,5.8,-999.0,56,-99.99,,,0.00,Acu-Link.com,2013-02-02 02:27:00,
2013-02-01 21:42:00,18.0,5.4,30.16,SW,225,3.7,-999.0,57,-99.99,,,0.00,Acu-Link.com,2013-02-02 02:42:00,
2013-02-01 21:57:00,17.8,5.2,30.18,West,270,7.3,-999.0,57,-99.99,,,0.00,Acu-Link.com,2013-02-02 02:57:00,
2013-02-01 22:12:00,17.2,4.6,30.18,SW,225,13.5,-999.0,57,-99.99,,,0.00,Acu-Link.com,2013-02-02 03:12:00,
2013-02-01 22:27:00,16.9,4.7,30.18,WSW,247,5.3,-999.0,58,-99.99,,,0.00,Acu-Link.com,2013-02-02 03:27:00,
2013-02-01 22:42:00,16.5,5.1,30.19,West,270,7.8,-999.0,60,-99.99,,,0.00,Acu-Link.com,2013-02-02 03:42:00,
2013-02-01 22:57:00,16.3,5.2,30.20,SW,225,3.7,-999.0,61,-99.99,,,0.00,Acu-Link.com,2013-02-02 03:57:00,
2013-02-01 23:13:00,16.0,5.3,30.20,West,270,7.3,-999.0,62,-99.99,,,0.00,Acu-Link.com,2013-02-02 04:13:00,
2013-02-01 23:28:00,16.0,5.3,30.20,SSW,202,2.7,-999.0,62,-99.99,,,0.00,Acu-Link.com,2013-02-02 04:28:00,
2013-02-01 23:43:00,15.8,5.5,30.21,West,270,8.3,-999.0,63,-99.99,,,0.00,Acu-Link.com,2013-02-02 04:43:00,
2013-02-01 23:58:00,15.4,5.4,30.21,West,270,7.8,-999.0,64,-99.99,,,0.00,Acu-Link.com,2013-02-02 04:58:00,